CZ-6A DEB, 60848

Orbit data source: Space-Track

CZ-6A DEB, 60848 is space debris in LEO originally from a launch on Tue, 06 Aug 2024 UTC launched from the Taiyaun Space Center, China (TSC). Debris objects in space refer to the collection of defunct objects orbiting the Earth. Examples of debris include non-operational satellites, rocket bodies, and fragments generated from explosions, collisions, or faulty payload assembly.

Loading next visibility...
Identifier
60848, 2024-140JB
Orbit
LEO
Country
Flag of CNCN / PRC
Related business
Manufacturer
SAST
Mission
Spacecraft
Bus & Motor
Unknown
Mass
Unknown
Launch date (UTC)
2024-08-06 (2 years ago)
Launch vehicle
Unknown
Launch site
Taiyaun Space Center, China (TSC)
Object type
Payload
Rocket body
Debris
Shape & HBR
Unknown shape, 0.1 m
Radar Cross Section
Small (<0.1 m²)

Expand to show TLE details & history
Last TLE update: 18 hours ago

TLE from 18 hours ago
0 CZ-6A DEB
1 60848U 24140JB  26129.76171304  .00006082  00000-0  87095-3 0  9994
2 60848  88.7252 252.0936 0127874 285.6420  73.0718 14.70953786 91368
Epoch: 2026-05-09T18:16Z
TLE epoch observation values (Epoch: 2026-05-09T18:16:52.006Z)
Latitude
-0.00005°
Longitude
110.3024°
Altitude
636.005 km
Speed
7.554 km/s
True Right ascension
16h 48m 22s
True Declination
0° 00' 00"
Sunlit
Object was in full shadow at epoch
Visualization orbit readout
Latitude
Unknown
Longitude
Unknown
Altitude
Unknown
Speed
Unknown
Apparent Right ascension
Unknown
Apparent Declination
Unknown
Sunlit
N/A
Visualization observer readout
Local Sidereal Time
20:41:32
Azimuth
Unknown
Elevation
Unknown
Doppler factor
Unknown
Orbital elements
Apogee altitude
744.839 km
Perigee altitude
564.97 km
Semi-major axis
7,033.041 km
Eccentricity
0.01279
Inclination
88.7252°
RAAN
252.0936°
Arg. of periapsis
285.642°
True anomaly
74.48005°
Mean anomaly
73.0718°
Eccentric anomaly
73.77528°
Mean motion
3.67984 °/min
Orbital period
97.83 mins
BSTAR
0.00087095
Loading maneuver chart data...
Computing Atmospheric mass density...
Loading historical data...
Loading historical data...
Loading historical data...
Loading historical data...
Loading historical data...
Loading historical data...
Loading historical data...

Documentation

Showing up to 5 results
|